[[{"header":{"parameterUnit":"m.s-1","parameterCategory":1,"la1":30.2991,"la2":30.254,"lo1":-89.0895,"lo2":-89.0444,"dy":0.0017,"dx":0.0017,"nx":28,"ny":28,"refTime":"2025-06-18T09:00:00:Z","depth":0,"parameterNumber":2,"parameterNumberName":"U-component_of_WINDS"},"data":[0,0,0,0,0,0,0,0,0,0,0,0,0,0,0,0,0,0,0,0,0,0,0,0,0,0,0,0,0,0,0,0,0,0,0,0,0,0,0,0,0,0,0,0,0,0,0,0,0,0,0,0,0,0,0,0,0,0,0.1932,0.1931,0,0.1926,0.1926,0.1926,0.1909,0.1909,0.1909,0.1908,0.1903,0.1903,0.1903,0,0,0,0,0,0,0,0,0,0,0,0,0,0.1928,0.1928,0.1932,0.1931,0.1931,0.1926,0.1926,0.1926,0.1909,0.1909,0.1909,0.1908,0.1903,0.1903,0.1903,0,0,0,0,0,0,0,0,0,0,0,0,0,0.1927,0.1928,0.1932,0.1923,0.1922,0.1926,0.1926,0.1926,0.191,0.1909,0.1908,0.1908,0.1903,0.1903,0.1903,0.1916,0,0,0.1904,0.1904,0,0,0,0,0,0,0,0,0.1927,0.1927,0.1924,0.1923,0.1922,0.1918,0.1923,0.1923,0.191,0.1914,0.1908,0.1908,0.1908,0.1908,0.1908,0.1916,0.1916,0.1904,0.1904,0.1905,0.1905,0,0,0,0,0,0,0,0.1927,0.1927,0.1929,0.1924,0.1923,0.1919,0.1918,0.1923,0.1914,0.1914,0.1913,0.1912,0.1908,0.1908,0.1908,0.1915,0.1904,0.1905,0.1905,0.1905,0.1933,0.1933,0,0,0,0,0,0,0.1928,0.1927,0.193,0.1929,0.1923,0.1919,0.1918,0.192,0.1914,0.1913,0.1913,0.1911,0.1908,0.1908,0.1908,0.1922,0.1905,0.1905,0.1905,0.1932,0.1933,0.1933,0,0,0,0,0,0,0.1928,0.1929,0.193,0.1928,0.1928,0.192,0.1922,0.192,0.192,0.1913,0.1912,0.1914,0.1907,0.1907,0.1914,0.1921,0.1905,0.1905,0.1931,0.1932,0.1933,0.195,0,0,0,0,0,0,0.1928,0.1929,0.1933,0.1928,0.1928,0.1936,0.1922,0.192,0.1921,0.1919,0.1915,0.1913,0.1907,0.1914,0.1914,0.1921,0.1905,0.1931,0.1932,0.1933,0.1949,0.1951,0.1953,0,0,0,0,0,0.1928,0.1938,0.1934,0.1934,0.1934,0.1936,0.1936,0.1929,0.1921,0.1926,0.1922,0.1914,0.1921,0.1914,0.1915,0.1922,0.193,0.1931,0.1933,0.1947,0.1951,0.1953,0,0,0,0,0,0,0.1945,0.1938,0.1932,0.1941,0.194,0.1934,0.1939,0.1932,0.1933,0.1931,0.1922,0.1921,0.1929,0.1926,0.192,0.1934,0.1924,0.1925,0.1935,0.1938,0.194,0.194,0.1906,0,0,0,0,0,0.195,0.1953,0.1946,0.1955,0.1954,0.1947,0.1948,0.1942,0.194,0.1939,0.1935,0.1934,0.1935,0.1937,0.1938,0.1948,0.1947,0.1954,0.1956,0.1958,0.1959,0.1964,0.1967,0.1937,0.1937,0.1937,0,0,0.1959,0.1956,0.1958,0.1958,0.1956,0.1959,0.1946,0.195,0.1952,0.194,0.1945,0.1943,0.194,0.1949,0.1952,0.1947,0.1967,0.196,0.1961,0.1961,0.1966,0.1968,0.1971,0.1938,0.1938,0.1938,0,0,0.1979,0.1976,0.1983,0.1981,0.1978,0.1974,0.1975,0.197,0.1968,0.1974,0.1964,0.1967,0.197,0.1969,0.1968,0.1987,0.1979,0.1988,0.2,0.2005,0.2007,0.2009,0.2015,0.2017,0.1989,0.1989,0.1989,0,0.1991,0.1995,0.1987,0.1992,0.1991,0.198,0.1987,0.1986,0.1984,0.1984,0.1978,0.1982,0.198,0.1987,0.1992,0.1992,0.1993,0.1988,0.2007,0.2009,0.2011,0.2017,0.2019,0.199,0.199,0.199,0.199,0,0.201,0.2013,0.2019,0.2017,0.2018,0.2023,0.2016,0.2018,0.2012,0.2008,0.2014,0.2011,0.2011,0.2012,0.2007,0.2019,0.2016,0.2009,0.1999,0.2015,0.202,0.2022,0.1992,0.1991,0.1991,0.1991,0,0,0.2039,0.2032,0.2035,0.2033,0.203,0.2032,0.2037,0.2037,0.2038,0.2038,0.2041,0.2044,0.2038,0.2038,0.2032,0.2036,0.2051,0.2029,0.2029,0.2032,0.2063,0.2068,0.207,0.2046,0.2047,0.2047,0.2063,0,0.2056,0.2064,0.2057,0.2066,0.2069,0.2058,0.2063,0.2061,0.2057,0.2059,0.2055,0.2057,0.2049,0.2048,0.2052,0.2048,0.2057,0.2047,0.2049,0.2049,0.2049,0.2073,0.2078,0.2093,0.2065,0.2065,0.2066,0,0.2077,0.2077,0.2086,0.2081,0.2082,0.2086,0.2086,0.2088,0.2085,0.2082,0.2082,0.2076,0.208,0.2071,0.2077,0.207,0.2071,0.2069,0.2069,0.2068,0.2058,0.2072,0.2098,0.21,0.2069,0.2069,0.2068,0,0.2096,0.2098,0.2104,0.2103,0.2098,0.2101,0.2099,0.2096,0.2097,0.2097,0.2097,0.2097,0.2097,0.2098,0.2091,0.2085,0.2098,0.2088,0.2095,0.2095,0.2097,0.2097,0.2123,0.21,0.2099,0.2099,0.2099,0,0.2115,0.2121,0.2112,0.2115,0.2122,0.2114,0.212,0.2117,0.2115,0.2118,0.211,0.2112,0.2104,0.2106,0.2101,0.2106,0.2107,0.2104,0.2103,0.2104,0.2104,0.2104,0.2102,0.21,0.21,0.21,0.21,0,0.2137,0.2131,0.2136,0.2131,0.213,0.2135,0.2131,0.2134,0.213,0.2133,0.2133,0.2127,0.2129,0.2123,0.2124,0.212,0.2128,0.2125,0.2129,0.2127,0.2134,0.2134,0.216,0.2163,0.2138,0.2139,0.2139,0,0.2149,0.2153,0.2149,0.215,0.2148,0.215,0.215,0.2143,0.2144,0.2142,0.2145,0.2146,0.2147,0.215,0.2145,0.2146,0.2142,0.2152,0.2142,0.2144,0.2142,0.2141,0.2141,0.2153,0.2154,0.2154,0.2154,0,0.2171,0.2168,0.2169,0.2169,0.2169,0.2169,0.2168,0.2169,0.2162,0.2163,0.2165,0.2165,0.2166,0.2167,0.2166,0.2165,0.2158,0.2157,0.2159,0.216,0.2161,0.216,0.2133,0.2156,0.2156,0.2156,0.2156,0.2156,0.2187,0.219,0.2188,0.2189,0.2187,0.2187,0.2189,0.2186,0.2187,0.2187,0.2183,0.2185,0.2183,0.2181,0.218,0.2182,0.2178,0.218,0.2181,0.2181,0.2182,0.2162,0.2182,0.2182,0.2182,0.2182,0.2182,0,0.2208,0.2206,0.2207,0.2206,0.2207,0.2201,0.22,0.2201,0.2203,0.2201,0.2202,0.2204,0.2205,0.2201,0.2201,0.2203,0.22,0.2203,0.2203,0.2202,0.2186,0.2184,0.2206,0.2206,0.2206,0.2206,0.2206,0.2206,0.2219,0.2223,0.222,0.2224,0.2222,0.2224,0.2224,0.2223,0.2222,0.2224,0.2225,0.2222,0.222,0.222,0.222,0.2219,0.2219,0.2224,0.2221,0.2206,0.2204,0.2201,0.2199,0.2224,0.2224,0.2237,0.2237,0.2237]},{"header":{"parameterUnit":"m.s-1","parameterCategory":1,"la1":30.2991,"la2":30.254,"lo1":-89.0895,"lo2":-89.0444,"dy":0.0017,"dx":0.0017,"nx":28,"ny":28,"refTime":"2025-06-18T09:00:00:Z","depth":0,"parameterNumber":3,"parameterNumberName":"V-component_of_WINDS"},"data":[0,0,0,0,0,0,0,0,0,0,0,0,0,0,0,0,0,0,0,0,0,0,0,0,0,0,0,0,0,0,0,0,0,0,0,0,0,0,0,0,0,0,0,0,0,0,0,0,0,0,0,0,0,0,0,0,0,0,3.4435,3.4437,0,3.4636,3.4638,3.464,3.4639,3.4637,3.4634,3.4632,3.4839,3.4847,3.4854,0,0,0,0,0,0,0,0,0,0,0,0,0,3.405,3.4057,3.4434,3.4437,3.4439,3.4635,3.4638,3.4641,3.464,3.4637,3.4634,3.4631,3.4836,3.4846,3.4855,0,0,0,0,0,0,0,0,0,0,0,0,0,3.4231,3.4059,3.4434,3.4463,3.4467,3.4635,3.4638,3.4641,3.4641,3.4637,3.4633,3.4629,3.4833,3.4845,3.4857,3.5009,0,0,3.4893,3.4898,0,0,0,0,0,0,0,0,3.422,3.4245,3.4456,3.4461,3.4466,3.4608,3.4578,3.4765,3.4642,3.4575,3.4632,3.4627,3.4765,3.4783,3.4829,3.5019,3.5028,3.4894,3.4901,3.4906,3.491,0,0,0,0,0,0,0,3.4208,3.4236,3.4514,3.4459,3.4465,3.4466,3.4487,3.4614,3.469,3.458,3.4581,3.4605,3.4768,3.4818,3.4834,3.5031,3.4894,3.4904,3.4912,3.4916,3.5355,3.5359,0,0,0,0,0,0,3.4189,3.4226,3.4508,3.452,3.4331,3.4476,3.4499,3.4567,3.4688,3.4703,3.4608,3.4604,3.4799,3.482,3.4841,3.5027,3.4906,3.4918,3.4924,3.535,3.5356,3.5361,0,0,0,0,0,0,3.4181,3.4215,3.45,3.4373,3.4409,3.4486,3.4562,3.4573,3.4623,3.4709,3.4723,3.4645,3.4797,3.4824,3.4967,3.5034,3.4923,3.4934,3.5345,3.5352,3.5358,3.5401,0,0,0,0,0,0,3.417,3.4212,3.427,3.4374,3.4416,3.4622,3.4566,3.458,3.4643,3.464,3.4748,3.4762,3.4796,3.4949,3.4979,3.5049,3.4943,3.5339,3.5348,3.5356,3.5394,3.5408,3.5421,0,0,0,0,0,3.4156,3.4275,3.4273,3.4307,3.4491,3.4626,3.465,3.4687,3.4649,3.4708,3.4764,3.4758,3.5022,3.4964,3.4997,3.5072,3.5335,3.5346,3.5356,3.5388,3.5405,3.542,0,0,0,0,0,0,3.4178,3.4289,3.4289,3.4444,3.4526,3.4626,3.4702,3.4704,3.4798,3.4791,3.4833,3.4857,3.5,3.505,3.4983,3.5225,3.5174,3.5191,3.5187,3.5205,3.5218,3.5203,3.4953,0,0,0,0,0,3.42,3.43,3.4392,3.4521,3.4561,3.4625,3.4685,3.4706,3.4792,3.4826,3.4892,3.4976,3.5078,3.5144,3.5243,3.5401,3.5424,3.5469,3.5482,3.5493,3.5507,3.5594,3.5614,3.5394,3.5394,3.5394,0,0,3.4248,3.4322,3.4382,3.4527,3.4592,3.4695,3.4654,3.4764,3.484,3.4843,3.4982,3.5033,3.5129,3.528,3.535,3.5327,3.5573,3.5505,3.5513,3.5522,3.5606,3.5627,3.5645,3.5401,3.5399,3.5398,0,0,3.4388,3.4454,3.4568,3.4634,3.4733,3.4774,3.4801,3.4901,3.4935,3.5074,3.5078,3.517,3.5345,3.5413,3.547,3.5635,3.5633,3.5666,3.5735,3.5819,3.5837,3.5852,3.591,3.5931,3.568,3.568,3.568,0,3.4436,3.459,3.4626,3.4736,3.4799,3.4806,3.4921,3.4984,3.5111,3.5154,3.5126,3.5345,3.541,3.5576,3.5616,3.5663,3.5695,3.5654,3.5831,3.5847,3.5862,3.5918,3.594,3.5683,3.5683,3.5682,3.5682,0,3.4643,3.4749,3.4829,3.495,3.5023,3.5135,3.5188,3.5257,3.5271,3.5315,3.5457,3.5535,3.5649,3.5691,3.5707,3.586,3.5842,3.5822,3.5771,3.5886,3.5939,3.5961,3.5688,3.5687,3.5686,3.5685,0,0,3.4802,3.4941,3.4969,3.5024,3.5133,3.5217,3.5329,3.544,3.5498,3.5585,3.568,3.5827,3.5809,3.5874,3.5898,3.5972,3.6096,3.5943,3.5946,3.5968,3.6268,3.6282,3.6306,3.6095,3.6099,3.6103,3.626,0,3.4953,3.5152,3.5187,3.5361,3.546,3.5467,3.5565,3.5643,3.5687,3.5777,3.5826,3.5929,3.5898,3.5937,3.601,3.6065,3.6157,3.6054,3.6184,3.6188,3.6159,3.6334,3.635,3.6494,3.6281,3.6285,3.6287,0,3.5156,3.5246,3.543,3.5525,3.5568,3.5655,3.5759,3.5845,3.5934,3.596,3.6033,3.6047,3.6164,3.6108,3.6269,3.6199,3.6254,3.6289,3.6295,3.6309,3.6244,3.6352,3.6541,3.6563,3.632,3.6318,3.6315,0,3.5252,3.5421,3.5552,3.5599,3.5713,3.5774,3.5825,3.5909,3.5973,3.6064,3.6106,3.621,3.6266,3.6346,3.6389,3.6344,3.6547,3.6494,3.6572,3.6571,3.6614,3.6611,3.6815,3.6651,3.665,3.665,3.6649,0,3.5417,3.5529,3.5597,3.5678,3.5803,3.5842,3.5966,3.6015,3.609,3.618,3.6193,3.6278,3.6329,3.6421,3.6455,3.6583,3.6608,3.6633,3.6641,3.6632,3.6629,3.6669,3.666,3.6656,3.6654,3.6653,3.6652,0,3.5546,3.5596,3.574,3.5836,3.5863,3.5951,3.6033,3.6112,3.6155,3.627,3.6299,3.6367,3.6476,3.6526,3.6661,3.6684,3.6829,3.683,3.68,3.6802,3.6877,3.6869,3.7113,3.7147,3.696,3.6962,3.6964,0,3.5648,3.5734,3.5839,3.59,3.5952,3.605,3.6115,3.6157,3.6225,3.6331,3.6397,3.6506,3.6596,3.6769,3.6831,3.6934,3.6938,3.7016,3.6953,3.6941,3.6938,3.6933,3.6941,3.7027,3.7029,3.7031,3.7032,0,3.5822,3.5842,3.5935,3.6038,3.6115,3.6197,3.6278,3.6327,3.6382,3.6457,3.6568,3.6637,3.6775,3.6883,3.699,3.7042,3.7047,3.7051,3.7075,3.7066,3.7045,3.7057,3.683,3.7045,3.7044,3.7043,3.7042,3.7042,3.5941,3.6017,3.6102,3.6206,3.627,3.6345,3.6424,3.6476,3.657,3.6684,3.6703,3.6822,3.6907,3.7051,3.7107,3.72,3.7182,3.7216,3.7224,3.7232,3.7236,3.703,3.722,3.722,3.7219,3.7219,3.7219,0,3.6115,3.617,3.6265,3.6377,3.6458,3.6454,3.6543,3.6611,3.6715,3.6794,3.6881,3.7008,3.7113,3.7183,3.7289,3.735,3.7355,3.7377,3.7373,3.7384,3.7247,3.7216,3.7371,3.7371,3.7371,3.7371,3.7371,3.7371,3.6216,3.6344,3.6375,3.6536,3.659,3.6706,3.6757,3.6826,3.6889,3.703,3.7117,3.7161,3.7237,3.7348,3.7444,3.7462,3.75,3.7523,3.754,3.741,3.7394,3.7379,3.735,3.7531,3.7531,3.767,3.7671,3.7672]}]]